QPF
0.00 0.00 0.00 0.00 0.00 0.00 0.00 0.00 0.00 0.00 0.00 0.00 0.00 0.01 0.01 0.01 0.02 0.18 0.18 0.14 0.12 0.05 0.00 0.00 0.00 0.01 0.01 0.01 0.02 0.01 0.01 0.03 0.03 0.05 0.05 0.02 0.00 0.01 0.00 0.00 0.00 0.00 0.00 0.00 0.00 0.00 0.00 0.00 0.00 0.00 0.00 0.00 0.00 0.00
0.00 0.00 0.00 0.00 0.00 0.00 0.00 0.00 0.00 0.00 0.00 0.00 0.00 0.01 0.01 0.00 0.01 0.10 0.12 0.08 0.07 0.07 0.01 0.00 0.00 0.00 0.00 0.00 0.01 0.01 0.01 0.01 0.02 0.05 0.08 0.06 0.02 0.01 0.00 0.00 0.00 0.00 0.00 0.00 0.00 0.00 0.00 0.00 0.00 0.00 0.00 0.00 0.00 0.00
0.00 0.00 0.00 0.00 0.00 0.00 0.00 0.00 0.00 0.00 0.00 0.00 0.00 0.01 0.01 0.01 0.02 0.06 0.06 0.05 0.12 0.07 0.01 0.00 0.00 0.00 0.00 0.00 0.00 0.00 0.00 0.00 0.00 0.00 0.01 0.02 0.02 0.01 0.03 0.00 0.00 0.00 0.00 0.00 0.00 0.00 0.00 0.00 0.00 0.00 0.00 0.00 0.00 0.00
0.00 0.00 0.00 0.00 0.00 0.00 0.00 0.00 0.00 0.00 0.00 0.00 0.01 0.01 0.01 0.02 0.02 0.02 0.04 0.01 0.03 0.05 0.02 0.00 0.00 0.00 0.00 0.00 0.00 0.00 0.00 0.00 0.00 0.01 0.03 0.02 0.01 0.01 0.02 0.01 0.00 0.00 0.00 0.00 0.00 0.00 0.00 0.00 0.00 0.00 0.00 0.00 0.00 0.00
0.00 0.00 0.00 0.00 0.00 0.00 0.00 0.00 0.00 0.00 0.00 0.00 0.00 0.01 0.02 0.01 0.00 0.01 0.04 0.00 0.00 0.05 0.02 0.00 0.00 0.00 0.00 0.00 0.00 0.00 0.00 0.00 0.00 0.02 0.03 0.01 0.01 0.01 0.00 0.00 0.00 0.00 0.00 0.00 0.00 0.00 0.00 0.00 0.00 0.00 0.00 0.00 0.00 0.00
0.00 0.00 0.00 0.00 0.00 0.00 0.00 0.00 0.00 0.00 0.00 0.00 0.01 0.01 0.00 0.00 0.00 0.01 0.02 0.02 0.01 0.03 0.05 0.00 0.00 0.00 0.00 0.00 0.00 0.00 0.00 0.01 0.02 0.04 0.03 0.02 0.01 0.04 0.04 0.00 0.00 0.00 0.00 0.00 0.00 0.00 0.00 0.00 0.00 0.00 0.00 0.00 0.00 0.00
0.00 0.00 0.00 0.00 0.00 0.00 0.00 0.00 0.00 0.00 0.01 0.01 0.00 0.00 0.00 0.00 0.00 0.00 0.00 0.00 0.00 0.01 0.03 0.03 0.02 0.02 0.01 0.03 0.04 0.06 0.08 0.11 0.15 0.18 0.14 0.09 0.10 0.20 0.12 0.02 0.00 0.00 0.00 0.00 0.00 0.00 0.00 0.00 0.00 0.00 0.00 0.00 0.00 0.00
0.00 0.00 0.00 0.00 0.00 0.00 0.00 0.00 0.00 0.00 0.01 0.01 0.00 0.00 0.00 0.00 0.00 0.00 0.00 0.00 0.00 0.01 0.02 0.06 0.04 0.07 0.09 0.08 0.11 0.09 0.13 0.17 0.19 0.22 0.19 0.17 0.18 0.26 0.25 0.15 0.21 0.14 0.03 0.00 0.00 0.00 0.00 0.00 0.00 0.00 0.00 0.00 0.00 0.00
0.00 0.00 0.00 0.00 0.00 0.00 0.00 0.00 0.00 0.01 0.00 0.00 0.00 0.00 0.00 0.00 0.00 0.01 0.00 0.00 0.00 0.01 0.05 0.08 0.08 0.10 0.07 0.03 0.04 0.07 0.11 0.15 0.18 0.22 0.26 0.30 0.42 0.58 0.49 0.50 0.41 0.34 0.11 0.01 0.01 0.01 0.00 0.00 0.00 0.00 0.00 0.00 0.00 0.01
0.00 0.00 0.00 0.00 0.00 0.00 0.00 0.00 0.00 0.00 0.00 0.00 0.00 0.00 0.00 0.00 0.00 0.00 0.00 0.00 0.00 0.00 0.01 0.02 0.02 0.02 0.01 0.02 0.03 0.06 0.07 0.10 0.16 0.20 0.27 0.41 0.64 0.70 0.76 0.38 0.08 0.06 0.02 0.00 0.01 0.01 0.01 0.01 0.00 0.00 0.00 0.01 0.05 0.10
0.00 0.00 0.00 0.00 0.00 0.00 0.00 0.00 0.00 0.00 0.00 0.00 0.00 0.00 0.00 0.00 0.00 0.00 0.00 0.00 0.00 0.01 0.00 0.00 0.00 0.00 0.00 0.01 0.02 0.02 0.03 0.06 0.10 0.10 0.13 0.29 0.57 0.73 0.63 0.42 0.19 0.05 0.01 0.01 0.00 0.01 0.01 0.08 0.09 0.06 0.13 0.15 0.24 0.43
0.00 0.00 0.00 0.00 0.00 0.00 0.00 0.00 0.00 0.00 0.00 0.00 0.00 0.00 0.00 0.00 0.00 0.00 0.00 0.00 0.00 0.02 0.01 0.00 0.00 0.00 0.00 0.00 0.01 0.01 0.02 0.04 0.03 0.04 0.13 0.33 0.47 0.55 0.61 0.62 0.42 0.31 0.33 0.47 0.52 0.47 0.19 0.16 0.15 0.26 0.59 0.30 0.39 0.37
0.00 0.00 0.00 0.00 0.00 0.00 0.00 0.00 0.00 0.00 0.00 0.00 0.00 0.00 0.00 0.00 0.00 0.00 0.00 0.00 0.00 0.00 0.00 0.00 0.02 0.00 0.01 0.01 0.04 0.05 0.02 0.02 0.01 0.03 0.17 0.22 0.15 0.20 0.36 0.48 0.48 0.45 0.42 0.47 0.56 0.41 0.22 0.23 0.43 0.49 0.58 0.43 0.33 0.28
0.00 0.00 0.00 0.00 0.00 0.00 0.00 0.00 0.00 0.00 0.00 0.00 0.00 0.00 0.00 0.00 0.00 0.00 0.00 0.00 0.00 0.00 0.00 0.00 0.02 0.00 0.00 0.01 0.01 0.04 0.03 0.00 0.02 0.07 0.13 0.04 0.04 0.05 0.05 0.09 0.16 0.28 0.40 0.48 0.50 0.47 0.45 0.46 0.48 0.45 0.40 0.40 0.35 0.34
0.00 0.00 0.00 0.00 0.00 0.00 0.00 0.00 0.00 0.00 0.00 0.00 0.00 0.00 0.00 0.00 0.00 0.00 0.00 0.00 0.00 0.00 0.00 0.00 0.00 0.00 0.00 0.00 0.01 0.01 0.03 0.03 0.04 0.07 0.03 0.01 0.01 0.00 0.00 0.00 0.00 0.01 0.03 0.10 0.17 0.28 0.38 0.34 0.22 0.16 0.14 0.12 0.10 0.07
0.00 0.00 0.00 0.00 0.00 0.00 0.00 0.00 0.00 0.00 0.00 0.00 0.00 0.00 0.00 0.00 0.00 0.00 0.00 0.00 0.00 0.00 0.00 0.00 0.00 0.00 0.00 0.00 0.01 0.01 0.04 0.08 0.05 0.01 0.00 0.00 0.00 0.00 0.00 0.00 0.00 0.00 0.00 0.00 0.00 0.01 0.04 0.07 0.08 0.10 0.09 0.05 0.03 0.02
0.00 0.00 0.00 0.00 0.00 0.00 0.00 0.00 0.00 0.00 0.00 0.00 0.00 0.00 0.00 0.00 0.00 0.00 0.00 0.00 0.00 0.00 0.00 0.00 0.00 0.00 0.01 0.00 0.02 0.03 0.08 0.06 0.01 0.00 0.00 0.00 0.00 0.00 0.00 0.00 0.00 0.00 0.00 0.00 0.00 0.00 0.00 0.00 0.00 0.00 0.00 0.00 0.00 0.00
0.00 0.00 0.00 0.00 0.00 0.00 0.00 0.00 0.00 0.00 0.00 0.00 0.00 0.00 0.00 0.00 0.00 0.00 0.00 0.00 0.00 0.00 0.00 0.00 0.00 0.00 0.00 0.01 0.02 0.02 0.03 0.05 0.01 0.00 0.00 0.00 0.00 0.00 0.00 0.00 0.00 0.00 0.00 0.00 0.00 0.00 0.00 0.00 0.00 0.00 0.00 0.00 0.00 0.00
0.00 0.00 0.00 0.00 0.00 0.00 0.00 0.00 0.00 0.00 0.00 0.00 0.00 0.00 0.00 0.00 0.00 0.00 0.00 0.00 0.00 0.00 0.00 0.00 0.00 0.00 0.00 0.00 0.00 0.00 0.00 0.00 0.00 0.00 0.00 0.00 0.00 0.00 0.00 0.00 0.00 0.00 0.00 0.00 0.00 0.00 0.00 0.00 0.00 0.00 0.00 0.00 0.00 0.00
0.00 0.00 0.00 0.00 0.00 0.00 0.00 0.00 0.00 0.00 0.00 0.00 0.00 0.00 0.00 0.00 0.00 0.00 0.00 0.00 0.00 0.00 0.00 0.00 0.00 0.00 0.00 0.00 0.00 0.00 0.00 0.00 0.00 0.00 0.00 0.00 0.00 0.00 0.00 0.00 0.00 0.00 0.00 0.00 0.00 0.00 0.00 0.00 0.00 0.00 0.00 0.00 0.00 0.00
0.00 0.00 0.00 0.00 0.00 0.00 0.00 0.00 0.00 0.00 0.00 0.00 0.00 0.00 0.00 0.00 0.00 0.00 0.00 0.00 0.00 0.00 0.00 0.00 0.00 0.00 0.00 0.00 0.00 0.00 0.00 0.00 0.00 0.00 0.00 0.00 0.00 0.00 0.00 0.00 0.00 0.00 0.00 0.00 0.00 0.00 0.00 0.00 0.00 0.00 0.00 0.00 0.00 0.00
0.00 0.00 0.00 0.00 0.00 0.00 0.00 0.00 0.00 0.00 0.00 0.00 0.00 0.00 0.00 0.00 0.00 0.00 0.00 0.00 0.00 0.00 0.00 0.00 0.00 0.00 0.00 0.00 0.00 0.00 0.00 0.00 0.00 0.00 0.00 0.00 0.00 0.00 0.00 0.00 0.00 0.00 0.00 0.00 0.00 0.00 0.00 0.00 0.00 0.00 0.00 0.00 0.00 0.00
0.00 0.00 0.00 0.00 0.00 0.00 0.00 0.00 0.00 0.00 0.00 0.00 0.00 0.00 0.00 0.00 0.00 0.00 0.00 0.00 0.00 0.00 0.00 0.00 0.00 0.00 0.00 0.00 0.00 0.00 0.00 0.00 0.00 0.00 0.00 0.00 0.00 0.00 0.00 0.00 0.00 0.00 0.00 0.00 0.00 0.00 0.00 0.00 0.00 0.00 0.00 0.00 0.00 0.00
0.00 0.00 0.00 0.00 0.00 0.00 0.00 0.00 0.00 0.00 0.00 0.00 0.00 0.00 0.00 0.00 0.00 0.00 0.00 0.00 0.00 0.00 0.00 0.00 0.00 0.00 0.00 0.00 0.00 0.00 0.00 0.00 0.00 0.00 0.00 0.00 0.00 0.00 0.00 0.00 0.00 0.00 0.00 0.00 0.00 0.00 0.00 0.00 0.00 0.00 0.00 0.00 0.00 0.00
0.00 0.00 0.00 0.00 0.00 0.00 0.00 0.00 0.00 0.00 0.00 0.00 0.00 0.00 0.00 0.00 0.00 0.00 0.00 0.00 0.00 0.00 0.00 0.00 0.00 0.00 0.00 0.00 0.00 0.00 0.00 0.00 0.00 0.00 0.00 0.00 0.00 0.00 0.00 0.00 0.00 0.00 0.00 0.00 0.00 0.00 0.00 0.00 0.00 0.00 0.00 0.00 0.00 0.00
0.00 0.00 0.00 0.00 0.00 0.00 0.00 0.00 0.00 0.00 0.00 0.00 0.00 0.00 0.00 0.00 0.00 0.00 0.00 0.00 0.00 0.00 0.00 0.00 0.00 0.00 0.00 0.00 0.00 0.00 0.00 0.00 0.00 0.00 0.00 0.00 0.00 0.00 0.00 0.00 0.00 0.00 0.00 0.00 0.00 0.00 0.00 0.00 0.00 0.00 0.00 0.00 0.00 0.00
0.00 0.00 0.00 0.00 0.00 0.00 0.00 0.00 0.00 0.00 0.00 0.00 0.00 0.00 0.01 0.01 0.00 0.00 0.00 0.00 0.00 0.00 0.00 0.00 0.00 0.00 0.00 0.00 0.00 0.00 0.00 0.00 0.00 0.00 0.00 0.00 0.00 0.00 0.00 0.00 0.00 0.00 0.00 0.00 0.00 0.00 0.00 0.00 0.00 0.00 0.00 0.00 0.00 0.00
0.00 0.00 0.00 0.00 0.00 0.00 0.00 0.00 0.00 0.00 0.00 0.00 0.00 0.00 0.00 0.00 0.00 0.00 0.00 0.00 0.00 0.00 0.01 0.00 0.00 0.00 0.00 0.00 0.00 0.00 0.00 0.00 0.00 0.00 0.00 0.00 0.00 0.00 0.00 0.00 0.00 0.00 0.00 0.00 0.00 0.00 0.00 0.00 0.00 0.00 0.00 0.00 0.00 0.00
0.00 0.00 0.00 0.00 0.00 0.00 0.00 0.00 0.00 0.00 0.00 0.00 0.00 0.00 0.00 0.00 0.00 0.00 0.00 0.00 0.00 0.01 0.00 0.00 0.00 0.00 0.00 0.00 0.00 0.00 0.00 0.00 0.00 0.00 0.00 0.00 0.00 0.00 0.00 0.00 0.00 0.00 0.00 0.00 0.00 0.00 0.00 0.00 0.00 0.00 0.00 0.00 0.00 0.00
0.00 0.00 0.00 0.00 0.00 0.00 0.00 0.00 0.00 0.00 0.00 0.00 0.00 0.00 0.00 0.00 0.00 0.00 0.00 0.00 0.00 0.00 0.00 0.00 0.00 0.00 0.00 0.00 0.00 0.00 0.00 0.00 0.00 0.00 0.00 0.00 0.00 0.00 0.00 0.00 0.00 0.00 0.00 0.00 0.00 0.00 0.00 0.00 0.00 0.00 0.00 0.00 0.00 0.00
0.00 0.00 0.00 0.00 0.00 0.00 0.00 0.00 0.00 0.00 0.00 0.00 0.00 0.00 0.00 0.00 0.00 0.00 0.00 0.00 0.00 0.00 0.00 0.00 0.00 0.00 0.00 0.00 0.00 0.00 0.00 0.00 0.00 0.00 0.00 0.00 0.00 0.00 0.00 0.00 0.00 0.00 0.00 0.00 0.00 0.00 0.00 0.00 0.00 0.00 0.00 0.00 0.00 0.00
0.00 0.00 0.00 0.00 0.00 0.00 0.00 0.00 0.00 0.00 0.00 0.00 0.00 0.00 0.00 0.03 0.08 0.01 0.00 0.00 0.00 0.00 0.00 0.00 0.00 0.00 0.00 0.00 0.00 0.00 0.00 0.00 0.00 0.00 0.00 0.00 0.00 0.00 0.00 0.00 0.00 0.00 0.00 0.00 0.00 0.00 0.00 0.00 0.00 0.01 0.01 0.00 0.00 0.00
0.00 0.00 0.00 0.00 0.00 0.00 0.00 0.00 0.00 0.00 0.00 0.00 0.00 0.00 0.00 0.02 0.05 0.00 0.00 0.00 0.00 0.00 0.00 0.00 0.00 0.00 0.00 0.00 0.00 0.00 0.00 0.00 0.00 0.00 0.00 0.00 0.00 0.00 0.00 0.00 0.00 0.00 0.00 0.00 0.00 0.00 0.01 0.01 0.01 0.01 0.01 0.01 0.01 0.00
MSLP
1026.17 1025.69 1025.07 1024.41 1023.77 1023.15 1022.62 1022.10 1021.55 1021.03 1020.72 1020.06 1019.44 1019.09 1018.67 1018.18 1017.93 1017.87 1017.19 1017.43 1018.12 1017.45 1015.94 1015.04 1014.10 1013.70 1013.07 1013.08 1012.80 1011.73 1011.09 1009.29 1008.57 1008.54 1007.31 1006.01 1003.90 1003.52 1002.10 1000.17 999.57 999.84 999.71 999.15 998.79 997.18 995.35 994.03 994.18 994.70 996.25 996.50 996.40 995.92
1025.44 1024.89 1024.33 1023.77 1023.08 1022.43 1021.89 1021.35 1020.78 1020.32 1019.79 1019.13 1018.65 1018.27 1017.74 1017.32 1017.03 1016.86 1016.52 1016.60 1016.90 1016.92 1015.58 1014.22 1013.69 1013.16 1012.79 1012.55 1012.95 1012.91 1011.74 1011.18 1010.43 1009.77 1009.38 1008.24 1005.64 1004.71 1003.28 1001.28 1000.44 1000.84 1000.02 999.05 998.70 997.76 997.10 996.22 996.56 996.46 997.46 997.86 997.87 997.68
1024.80 1024.26 1023.61 1022.98 1022.35 1021.73 1021.06 1020.49 1019.95 1019.46 1018.78 1018.35 1017.86 1017.32 1016.80 1016.38 1016.11 1016.04 1015.67 1016.24 1016.78 1016.57 1015.49 1014.26 1011.60 1011.03 1011.03 1011.51 1012.01 1013.07 1012.32 1012.09 1011.63 1011.33 1010.85 1009.38 1008.10 1005.81 1004.74 1002.84 1001.92 1001.65 1000.89 1000.07 999.83 998.93 998.58 998.22 997.88 998.16 998.62 998.72 998.72 998.83
1024.12 1023.54 1022.88 1022.25 1021.57 1020.92 1020.26 1019.74 1019.15 1018.45 1018.02 1017.57 1016.96 1016.42 1015.75 1015.45 1015.23 1015.15 1015.17 1015.91 1016.09 1016.02 1015.15 1012.23 1010.33 1010.29 1010.62 1010.86 1011.14 1011.79 1012.02 1012.34 1012.43 1011.99 1011.85 1010.82 1009.67 1007.75 1006.29 1005.28 1003.71 1002.25 1001.59 1000.91 1000.15 999.95 999.72 999.39 999.32 999.39 999.12 998.97 999.24 998.95
1023.36 1022.74 1022.13 1021.55 1020.85 1020.17 1019.56 1018.95 1018.21 1017.65 1017.35 1016.80 1016.23 1015.46 1015.01 1014.71 1014.59 1014.32 1014.55 1015.27 1015.27 1015.81 1014.80 1012.90 1011.52 1009.97 1010.13 1010.17 1010.58 1011.14 1011.85 1012.36 1012.69 1012.91 1012.37 1011.26 1010.15 1009.34 1007.50 1006.20 1004.29 1003.24 1002.21 1001.58 1000.51 1000.14 999.86 999.81 999.84 999.91 999.80 999.57 999.31 999.09
1022.65 1021.95 1021.40 1020.90 1020.11 1019.44 1018.84 1018.09 1017.48 1017.07 1016.67 1016.13 1015.34 1014.82 1014.45 1014.34 1014.45 1013.78 1014.32 1014.96 1015.27 1015.70 1015.21 1013.66 1011.62 1011.44 1011.10 1010.81 1011.10 1011.38 1011.70 1012.25 1012.70 1013.11 1012.68 1012.00 1011.21 1011.10 1009.07 1005.82 1004.20 1003.50 1002.86 1002.44 1001.68 1001.22 1000.56 1000.16 1000.00 999.81 999.85 999.79 1000.03 999.62
1021.93 1021.35 1020.85 1020.17 1019.43 1018.83 1018.07 1017.42 1016.98 1016.60 1016.03 1015.43 1014.85 1014.41 1014.12 1014.22 1013.64 1014.15 1014.83 1014.87 1015.38 1015.82 1015.59 1014.58 1013.14 1012.28 1012.10 1011.97 1012.18 1012.54 1012.73 1013.07 1013.45 1013.56 1013.31 1012.70 1012.25 1012.07 1010.07 1006.97 1004.15 1004.26 1003.91 1002.94 1002.80 1002.62 1001.54 1000.89 1000.87 1000.43 1000.24 1000.18 1000.47 1000.10
1021.35 1020.79 1020.18 1019.50 1018.81 1018.20 1017.41 1016.81 1016.45 1016.02 1015.38 1014.96 1014.70 1014.51 1014.40 1014.41 1014.58 1014.69 1015.30 1015.67 1015.67 1015.84 1015.90 1015.34 1014.18 1013.15 1013.12 1012.66 1012.61 1013.14 1013.33 1013.58 1013.99 1013.87 1013.53 1012.91 1012.50 1011.84 1009.80 1006.66 1004.92 1003.77 1003.56 1002.97 1002.15 1002.14 1001.85 1001.39 1001.38 1001.14 1001.16 1000.99 1000.14 1000.08
1020.85 1020.22 1019.55 1018.91 1018.17 1017.50 1016.88 1016.30 1015.86 1015.30 1014.91 1014.68 1014.62 1014.76 1014.41 1014.68 1014.34 1015.36 1015.66 1015.83 1015.94 1016.20 1015.81 1015.58 1014.96 1014.19 1013.66 1013.32 1012.95 1013.23 1013.78 1013.73 1013.87 1013.53 1013.18 1012.92 1011.83 1010.87 1009.00 1006.20 1002.93 1000.38 999.50 1001.51 1001.93 1002.18 1002.00 1001.50 1001.42 1001.66 1001.58 1000.91 1000.62 1000.58
1020.31 1019.59 1018.93 1018.31 1017.59 1016.88 1016.30 1015.74 1015.21 1014.83 1014.59 1014.41 1014.54 1013.92 1013.43 1014.01 1015.14 1015.61 1015.83 1015.64 1015.59 1015.70 1015.65 1015.08 1014.86 1014.25 1014.07 1013.16 1012.70 1012.62 1012.80 1012.70 1012.60 1012.42 1012.50 1012.35 1011.17 1009.84 1007.81 1003.98 1000.99 999.61 999.76 1001.29 1001.95 1002.23 1002.46 1002.25 1001.83 1001.49 1001.33 1000.56 1000.54 1000.32
1019.80 1019.06 1018.31 1017.70 1017.18 1016.46 1015.74 1015.25 1014.71 1014.54 1014.42 1013.76 1012.09 1012.17 1013.52 1014.73 1015.00 1014.33 1013.38 1013.57 1013.71 1013.79 1013.86 1013.23 1013.25 1013.23 1013.28 1013.05 1012.38 1012.07 1011.81 1011.80 1011.33 1011.18 1011.43 1011.59 1010.49 1008.80 1006.94 1004.77 1003.08 1001.92 1002.00 1002.33 1002.55 1002.65 1002.56 1002.08 1001.55 1000.99 1000.62 1000.15 1000.56 1001.13
1019.24 1018.50 1017.76 1017.18 1016.73 1016.04 1015.27 1014.77 1014.33 1013.86 1012.81 1013.40 1013.22 1013.12 1012.63 1013.08 1012.87 1012.59 1013.14 1012.82 1012.57 1011.99 1011.47 1011.10 1010.31 1011.40 1011.70 1012.08 1011.55 1010.56 1009.95 1010.16 1009.88 1010.17 1011.17 1011.62 1011.37 1009.57 1008.15 1006.70 1005.27 1004.21 1003.58 1002.71 1002.43 1002.80 1002.33 1001.25 1001.45 1001.59 1001.45 1001.39 1002.10 1002.29
1018.67 1017.92 1017.28 1016.67 1016.14 1015.61 1014.92 1014.30 1014.06 1013.86 1013.58 1012.58 1012.65 1012.36 1012.17 1012.71 1013.03 1013.81 1013.74 1013.13 1012.41 1011.38 1010.21 1009.14 1008.49 1008.82 1009.54 1010.38 1009.50 1008.55 1008.57 1009.06 1009.07 1010.52 1012.32 1012.82 1012.29 1010.68 1009.34 1008.21 1006.96 1006.08 1005.26 1004.05 1003.69 1003.27 1003.02 1003.27 1003.54 1003.42 1003.06 1003.09 1003.03 1003.16
1018.21 1017.40 1016.73 1016.14 1015.53 1014.96 1014.41 1013.88 1013.67 1013.75 1013.47 1011.21 1011.33 1012.44 1012.33 1012.69 1012.86 1013.06 1012.24 1011.03 1009.98 1009.34 1008.30 1007.81 1007.34 1006.87 1007.39 1008.26 1008.70 1009.40 1009.41 1010.25 1011.22 1012.22 1013.02 1013.11 1012.36 1011.40 1010.36 1009.23 1008.09 1007.41 1006.44 1006.04 1005.98 1005.43 1005.04 1004.96 1004.97 1005.26 1004.85 1004.35 1003.93 1004.51
1017.73 1016.95 1016.24 1015.64 1014.94 1014.17 1013.60 1013.20 1013.10 1012.77 1011.38 1011.32 1011.68 1012.22 1012.21 1011.82 1011.39 1010.90 1010.40 1009.54 1008.87 1007.86 1006.87 1006.84 1006.58 1006.53 1007.56 1008.88 1010.65 1010.79 1011.10 1012.70 1013.86 1013.84 1013.51 1012.90 1012.46 1011.66 1011.00 1010.16 1009.19 1008.43 1007.83 1007.32 1007.07 1007.07 1007.06 1007.15 1006.99 1006.87 1006.52 1006.07 1005.82 1005.78
1017.23 1016.19 1015.70 1015.40 1014.77 1013.97 1013.24 1012.15 1011.84 1011.34 1011.41 1011.52 1011.75 1011.82 1011.58 1011.18 1010.74 1010.38 1010.10 1009.50 1008.77 1007.31 1006.76 1007.12 1007.64 1008.23 1008.74 1010.50 1012.26 1013.15 1013.78 1014.54 1014.83 1014.23 1013.38 1012.83 1012.61 1012.03 1011.28 1010.90 1010.42 1009.65 1008.99 1008.28 1007.84 1007.70 1007.60 1007.65 1007.53 1007.48 1007.26 1007.12 1007.30 1007.39
1017.12 1015.41 1015.57 1015.31 1014.64 1013.55 1012.64 1011.87 1011.45 1011.79 1011.99 1011.96 1011.78 1011.95 1011.82 1011.68 1011.23 1010.68 1010.27 1009.84 1009.08 1008.20 1007.29 1007.80 1009.06 1009.94 1010.35 1011.54 1013.10 1014.16 1014.57 1015.04 1014.09 1013.98 1013.71 1013.55 1013.01 1012.22 1011.54 1011.03 1010.74 1010.30 1009.93 1009.47 1009.12 1008.48 1008.03 1007.88 1007.97 1007.86 1007.69 1007.84 1007.68 1007.63
1015.97 1014.89 1015.52 1015.53 1015.11 1013.29 1012.09 1011.81 1011.70 1011.84 1011.92 1011.85 1011.71 1011.82 1011.75 1011.89 1011.63 1011.15 1010.75 1010.38 1009.69 1009.24 1008.98 1009.30 1010.19 1011.00 1011.68 1012.85 1013.46 1013.72 1013.59 1014.00 1013.85 1013.46 1013.40 1013.25 1012.82 1012.66 1012.01 1011.41 1010.92 1010.64 1010.29 1010.02 1009.61 1009.40 1009.26 1008.69 1008.21 1007.99 1008.02 1008.13 1008.24 1008.19
1016.66 1016.48 1016.10 1015.96 1015.87 1014.74 1012.35 1012.28 1012.05 1011.64 1011.79 1011.88 1011.76 1011.77 1011.78 1011.96 1011.97 1011.64 1011.21 1010.90 1010.52 1010.24 1009.95 1010.40 1011.83 1012.54 1013.10 1013.62 1013.50 1013.11 1013.24 1013.23 1012.79 1012.83 1012.89 1013.13 1012.57 1012.35 1012.31 1011.82 1011.18 1010.76 1010.33 1010.11 1010.13 1009.57 1009.48 1009.53 1009.28 1009.07 1008.81 1008.89 1009.13 1009.30
1016.79 1016.30 1015.97 1015.72 1015.58 1013.54 1012.49 1012.41 1012.48 1011.64 1011.38 1012.05 1011.78 1011.68 1011.93 1011.79 1011.96 1011.82 1011.67 1011.45 1011.19 1011.01 1011.12 1011.39 1011.91 1012.55 1012.84 1013.31 1013.62 1013.68 1013.70 1013.94 1013.22 1012.49 1012.09 1012.01 1012.15 1012.06 1012.11 1012.11 1011.72 1011.14 1010.61 1010.56 1010.17 1010.49 1009.68 1009.58 1009.78 1010.16 1010.37 1010.37 1010.34 1010.60
1016.05 1015.25 1015.02 1014.92 1013.86 1013.22 1012.54 1011.98 1011.71 1012.11 1011.71 1011.74 1011.81 1011.69 1011.70 1011.36 1011.49 1011.85 1011.80 1011.90 1011.81 1011.94 1012.07 1012.58 1012.73 1013.24 1014.14 1014.40 1014.32 1014.57 1014.23 1014.50 1013.88 1013.49 1013.50 1012.98 1013.06 1012.52 1012.42 1012.40 1012.20 1011.72 1011.41 1011.06 1010.68 1010.53 1010.61 1010.47 1010.45 1010.62 1010.90 1010.85 1011.01 1011.04
1015.38 1015.55 1014.76 1014.15 1013.30 1013.10 1012.59 1012.55 1012.12 1012.24 1011.80 1011.67 1011.52 1011.69 1011.42 1011.32 1011.46 1012.16 1012.38 1011.86 1012.39 1012.80 1013.28 1013.39 1013.83 1013.99 1013.75 1014.33 1014.68 1014.96 1015.11 1014.89 1014.09 1013.76 1013.75 1013.68 1012.80 1012.74 1012.66 1012.64 1012.58 1012.42 1012.14 1012.12 1011.68 1011.57 1011.77 1012.05 1012.07 1011.48 1011.46 1011.21 1011.13 1011.87
1015.78 1015.61 1014.19 1013.53 1013.12 1013.20 1013.04 1012.64 1011.95 1011.80 1011.56 1011.54 1011.44 1011.24 1011.37 1011.44 1011.85 1012.61 1011.89 1012.26 1012.50 1013.17 1013.48 1013.81 1014.29 1014.31 1014.52 1014.41 1014.67 1014.60 1014.93 1014.80 1013.86 1013.61 1013.58 1013.75 1013.23 1012.75 1013.03 1012.90 1012.93 1012.97 1012.77 1012.67 1012.48 1012.24 1012.35 1013.09 1012.57 1012.40 1012.15 1012.10 1012.06 1011.96
1016.35 1014.85 1013.62 1013.03 1012.86 1012.72 1012.41 1011.80 1011.79 1011.56 1011.56 1011.28 1011.29 1011.39 1011.34 1011.72 1012.08 1011.68 1011.66 1011.97 1012.56 1012.87 1013.12 1013.95 1013.70 1013.53 1013.48 1014.11 1013.47 1013.81 1014.55 1014.56 1014.08 1013.79 1013.64 1014.02 1013.59 1013.20 1013.12 1013.12 1013.15 1013.36 1013.53 1012.93 1012.92 1012.89 1012.95 1012.97 1013.31 1013.02 1013.05 1012.98 1012.87 1012.70
1015.69 1014.96 1013.93 1013.33 1012.61 1012.02 1011.44 1011.14 1011.15 1010.98 1010.97 1011.00 1011.03 1010.86 1011.02 1011.89 1011.35 1011.26 1011.40 1011.57 1012.08 1012.52 1013.02 1013.19 1013.28 1013.30 1013.40 1013.57 1013.65 1013.73 1014.58 1014.53 1014.39 1014.23 1013.91 1014.46 1014.18 1013.70 1013.19 1013.06 1013.14 1013.54 1013.88 1013.70 1013.31 1013.25 1013.39 1013.41 1013.44 1013.61 1013.46 1014.00 1014.09 1013.41
1014.85 1013.50 1013.21 1012.09 1011.73 1011.49 1011.07 1010.75 1010.57 1010.48 1010.58 1010.70 1010.57 1010.92 1011.36 1011.18 1011.02 1010.82 1010.91 1011.67 1012.14 1012.96 1013.12 1013.30 1013.62 1013.47 1013.33 1013.62 1013.94 1014.23 1014.71 1014.98 1015.15 1014.80 1014.87 1015.09 1014.89 1014.65 1014.32 1013.94 1013.64 1014.11 1014.77 1014.52 1014.11 1013.88 1013.81 1013.91 1013.93 1014.00 1013.69 1014.15 1014.67 1014.03
1013.16 1011.99 1011.74 1011.75 1011.51 1011.21 1010.56 1010.06 1010.13 1010.22 1010.13 1010.00 1009.82 1010.18 1010.39 1010.71 1010.33 1010.64 1011.15 1012.02 1012.66 1013.52 1014.23 1014.71 1014.51 1014.43 1013.91 1013.81 1014.22 1014.73 1015.10 1015.31 1015.66 1015.86 1015.82 1015.81 1015.62 1015.64 1015.61 1015.33 1015.20 1015.68 1015.82 1015.04 1014.63 1014.58 1014.54 1014.54 1014.49 1014.47 1014.48 1014.48 1014.54 1014.68
1011.74 1011.35 1010.85 1010.55 1010.67 1010.23 1010.02 1009.83 1009.52 1009.45 1009.29 1009.41 1009.74 1010.05 1010.16 1010.18 1010.64 1010.74 1011.27 1012.17 1012.93 1014.02 1014.65 1014.67 1015.35 1014.71 1014.69 1014.75 1014.74 1014.79 1014.78 1014.83 1014.73 1015.12 1014.82 1015.14 1015.44 1015.73 1016.19 1015.94 1015.94 1016.71 1016.26 1016.14 1016.14 1015.80 1015.55 1015.43 1015.40 1015.46 1015.43 1015.40 1015.41 1015.68
1010.85 1010.42 1010.30 1010.10 1009.80 1009.54 1009.30 1009.26 1008.85 1009.36 1008.94 1008.82 1008.89 1009.12 1009.47 1009.75 1010.59 1010.87 1011.85 1012.53 1013.39 1014.11 1014.14 1014.68 1014.30 1014.35 1014.95 1014.52 1014.66 1014.86 1015.02 1014.98 1015.05 1015.07 1015.16 1014.94 1015.30 1015.72 1016.14 1016.08 1015.92 1015.80 1015.73 1016.14 1016.99 1016.89 1017.00 1016.89 1016.81 1016.59 1016.24 1016.02 1016.23 1016.03
1010.21 1009.85 1009.67 1009.55 1009.27 1008.71 1009.01 1008.47 1008.40 1008.50 1008.61 1009.05 1009.34 1009.48 1009.42 1009.93 1011.21 1012.05 1012.64 1013.34 1013.71 1013.53 1013.73 1014.50 1013.75 1014.30 1014.03 1013.84 1013.99 1014.14 1014.43 1015.12 1015.55 1015.82 1015.65 1015.74 1015.99 1016.27 1016.52 1016.58 1016.50 1016.51 1016.47 1016.23 1016.37 1016.89 1017.38 1017.05 1016.86 1016.86 1016.74 1016.49 1016.52 1016.25
1009.52 1009.41 1009.24 1008.96 1008.58 1008.15 1008.03 1008.42 1008.53 1008.71 1009.14 1009.23 1009.26 1009.66 1009.68 1010.39 1012.06 1012.91 1013.18 1013.47 1013.51 1013.44 1013.45 1013.51 1013.69 1013.63 1013.88 1014.27 1014.69 1014.83 1014.60 1014.93 1016.19 1016.78 1017.21 1016.59 1016.71 1017.06 1017.22 1017.21 1017.03 1017.06 1017.12 1017.05 1016.95 1017.07 1017.18 1017.17 1017.12 1017.20 1017.24 1017.24 1017.18 1016.99
1009.15 1009.04 1008.61 1008.36 1007.99 1008.01 1008.39 1008.31 1008.23 1008.24 1008.22 1008.84 1008.98 1009.60 1009.97 1010.57 1011.86 1013.00 1013.84 1013.51 1013.18 1012.97 1013.90 1013.87 1013.42 1013.91 1014.78 1014.90 1015.25 1015.59 1016.70 1015.87 1015.98 1016.48 1017.28 1017.37 1017.60 1017.74 1017.65 1017.37 1017.34 1017.30 1017.35 1017.36 1017.25 1017.35 1017.39 1017.38 1017.26 1017.45 1017.42 1017.33 1017.27 1017.33
1008.56 1008.44 1008.50 1008.32 1007.95 1007.59 1007.57 1008.13 1008.37 1008.43 1008.51 1008.63 1009.34 1009.97 1009.91 1010.67 1012.02 1013.33 1014.23 1014.12 1013.79 1013.39 1013.44 1013.96 1014.50 1015.23 1015.91 1015.97 1016.34 1016.18 1016.60 1016.61 1017.49 1017.97 1018.48 1018.98 1019.30 1019.30 1018.81 1017.99 1017.76 1017.72 1017.68 1017.63 1017.62 1017.80 1017.81 1017.79 1017.70 1017.75 1017.66 1017.50 1017.36 1017.31
Thickness
5548 5546 5543 5543 5541 5537 5533 5529 5526 5522 5519 5518 5517 5513 5508 5502 5496 5489 5487 5475 5463 5459 5462 5465 5467 5460 5461 5454 5446 5460 5462 5476 5482 5479 5497 5510 5534 5533 5548 5578 5588 5583 5588 5598 5610 5618 5632 5698 5694 5683 5680 5700 5706 5727
5550 5547 5545 5543 5541 5538 5534 5530 5527 5524 5522 5523 5521 5517 5513 5508 5502 5496 5493 5483 5473 5466 5470 5476 5472 5470 5467 5463 5452 5449 5460 5462 5468 5474 5477 5487 5513 5524 5537 5549 5580 5564 5582 5600 5609 5624 5649 5663 5657 5670 5674 5679 5689 5704
5549 5548 5546 5545 5542 5539 5536 5532 5530 5527 5527 5526 5525 5523 5519 5514 5509 5502 5499 5487 5476 5469 5471 5473 5493 5490 5485 5474 5466 5445 5457 5458 5462 5466 5468 5482 5487 5517 5515 5539 5550 5555 5572 5576 5582 5604 5612 5634 5643 5649 5659 5667 5681 5692
5550 5549 5548 5546 5543 5540 5537 5534 5532 5532 5531 5531 5530 5528 5525 5521 5516 5509 5503 5491 5484 5477 5473 5496 5504 5497 5490 5483 5477 5468 5463 5460 5459 5464 5460 5470 5474 5501 5506 5512 5525 5548 5558 5565 5579 5589 5596 5608 5620 5630 5649 5661 5670 5683
5553 5551 5550 5546 5544 5541 5538 5535 5535 5536 5536 5537 5535 5535 5531 5527 5521 5515 5509 5497 5493 5484 5486 5489 5498 5506 5499 5494 5486 5479 5470 5465 5461 5453 5460 5471 5483 5486 5502 5508 5520 5533 5542 5547 5563 5584 5589 5597 5610 5626 5634 5647 5659 5670
5555 5555 5552 5547 5546 5543 5540 5539 5540 5542 5542 5541 5542 5539 5536 5531 5524 5522 5516 5503 5495 5487 5484 5490 5506 5498 5495 5493 5487 5481 5477 5471 5465 5454 5460 5468 5476 5469 5481 5513 5529 5531 5535 5540 5548 5564 5575 5589 5599 5613 5622 5633 5643 5657
5558 5557 5553 5550 5548 5546 5545 5546 5548 5548 5548 5547 5544 5543 5541 5534 5532 5528 5520 5509 5499 5491 5486 5486 5492 5497 5492 5488 5481 5473 5469 5461 5456 5451 5450 5453 5457 5454 5465 5497 5524 5517 5516 5522 5528 5534 5549 5570 5578 5596 5608 5620 5630 5645
5560 5559 5557 5555 5553 5552 5554 5556 5556 5554 5553 5550 5546 5545 5541 5536 5530 5527 5516 5507 5501 5496 5488 5485 5491 5495 5489 5490 5486 5472 5468 5463 5455 5452 5451 5453 5453 5454 5470 5498 5507 5510 5512 5520 5531 5533 5541 5554 5566 5579 5590 5604 5623 5635
5562 5562 5562 5561 5560 5561 5563 5564 5563 5562 5558 5553 5549 5546 5544 5539 5540 5526 5519 5513 5508 5503 5495 5488 5493 5498 5492 5491 5493 5482 5467 5469 5461 5459 5456 5455 5464 5471 5479 5485 5498 5520 5532 5525 5534 5535 5537 5544 5553 5562 5576 5597 5610 5622
5565 5567 5567 5567 5568 5569 5569 5570 5570 5569 5564 5558 5553 5560 5560 5553 5534 5528 5524 5526 5516 5511 5503 5502 5498 5500 5500 5503 5504 5499 5486 5488 5491 5484 5466 5465 5471 5477 5488 5517 5542 5544 5537 5530 5528 5526 5524 5529 5539 5551 5567 5592 5607 5621
5568 5570 5572 5572 5572 5574 5575 5574 5574 5572 5566 5570 5582 5577 5562 5546 5542 5550 5562 5553 5546 5541 5526 5528 5519 5519 5515 5516 5517 5509 5508 5494 5505 5512 5498 5484 5489 5496 5509 5522 5532 5542 5539 5531 5522 5520 5524 5531 5539 5551 5569 5590 5600 5605
5571 5574 5576 5576 5574 5575 5578 5577 5577 5580 5586 5576 5574 5570 5570 5567 5572 5570 5554 5557 5553 5552 5555 5554 5559 5538 5538 5526 5527 5536 5539 5531 5529 5531 5504 5490 5485 5500 5506 5515 5522 5525 5526 5527 5530 5528 5531 5545 5548 5549 5560 5575 5579 5589
5575 5578 5580 5580 5580 5579 5581 5583 5581 5578 5575 5580 5581 5573 5570 5566 5553 5538 5530 5535 5538 5554 5563 5569 5570 5571 5562 5547 5558 5566 5559 5547 5556 5526 5485 5485 5495 5503 5507 5511 5516 5517 5519 5526 5528 5531 5534 5532 5534 5546 5558 5564 5572 5579
5578 5582 5584 5586 5587 5588 5590 5589 5586 5580 5579 5591 5585 5559 5566 5556 5555 5547 5551 5562 5573 5574 5578 5578 5579 5583 5581 5569 5567 5549 5557 5544 5523 5504 5491 5498 5502 5506 5511 5517 5522 5520 5524 5523 5521 5523 5528 5533 5535 5536 5548 5556 5566 5567
5582 5585 5588 5589 5592 5596 5597 5595 5592 5590 5596 5588 5583 5560 5565 5573 5576 5576 5577 5580 5582 5590 5592 5585 5587 5588 5574 5560 5542 5542 5537 5514 5497 5493 5500 5507 5506 5510 5511 5515 5521 5524 5526 5525 5525 5521 5520 5520 5523 5526 5533 5540 5548 5554
5585 5591 5589 5591 5594 5598 5600 5603 5603 5602 5593 5587 5581 5573 5577 5575 5576 5577 5575 5575 5583 5593 5593 5586 5572 5562 5559 5543 5519 5508 5503 5492 5488 5501 5509 5510 5507 5510 5514 5513 5512 5517 5521 5526 5528 5527 5528 5526 5526 5527 5531 5534 5533 5535
5586 5597 5591 5590 5594 5601 5604 5606 5602 5592 5585 5580 5578 5579 5575 5572 5571 5574 5575 5573 5581 5581 5579 5574 5550 5542 5548 5533 5513 5501 5492 5485 5505 5503 5503 5501 5503 5508 5513 5515 5516 5517 5516 5518 5519 5525 5529 5531 5529 5530 5532 5532 5535 5538
5593 5595 5590 5588 5590 5601 5608 5605 5598 5592 5583 5585 5579 5578 5578 5574 5570 5571 5573 5573 5573 5570 5570 5559 5555 5537 5528 5514 5510 5512 5513 5504 5504 5505 5502 5500 5502 5501 5506 5510 5513 5515 5516 5517 5520 5520 5519 5524 5527 5530 5531 5530 5530 5531
5587 5585 5587 5587 5585 5592 5601 5598 5598 5589 5587 5587 5586 5585 5580 5574 5572 5572 5571 5570 5570 5569 5565 5554 5530 5519 5515 5512 5512 5515 5512 5509 5510 5506 5503 5498 5501 5499 5497 5500 5506 5510 5514 5515 5513 5518 5518 5516 5519 5521 5522 5522 5520 5519
5587 5589 5590 5589 5589 5603 5598 5595 5597 5594 5589 5583 5586 5582 5576 5574 5571 5569 5566 5565 5562 5558 5550 5543 5536 5530 5525 5518 5513 5509 5505 5497 5501 5504 5504 5503 5500 5498 5495 5492 5493 5498 5503 5503 5507 5501 5513 5512 5510 5506 5504 5504 5505 5504
5594 5597 5596 5595 5605 5604 5601 5599 5596 5590 5590 5584 5584 5581 5575 5579 5572 5564 5562 5561 5554 5547 5542 5538 5534 5527 5515 5509 5506 5498 5497 5490 5491 5491 5487 5489 5486 5488 5486 5484 5484 5487 5487 5489 5492 5494 5494 5496 5498 5496 5493 5494 5494 5495
5600 5595 5600 5603 5604 5600 5598 5597 5593 5590 5587 5584 5582 5578 5573 5570 5567 5559 5557 5555 5545 5540 5534 5530 5523 5518 5517 5506 5499 5492 5486 5483 5488 5486 5478 5478 5484 5481 5479 5476 5474 5473 5474 5472 5474 5473 5471 5469 5469 5476 5478 5482 5484 5477
5595 5594 5604 5604 5598 5586 5583 5595 5589 5588 5580 5579 5581 5575 5570 5567 5564 5558 5555 5550 5546 5539 5533 5526 5517 5513 5506 5504 5496 5492 5484 5479 5484 5483 5479 5473 5475 5477 5470 5469 5466 5461 5460 5460 5461 5461 5458 5446 5454 5455 5458 5460 5461 5464
5591 5598 5600 5600 5597 5583 5595 5592 5592 5587 5583 5580 5574 5566 5567 5563 5561 5557 5549 5547 5543 5539 5532 5520 5519 5514 5510 5499 5500 5492 5480 5476 5476 5475 5472 5464 5464 5463 5461 5458 5455 5451 5447 5451 5449 5447 5446 5445 5437 5441 5440 5441 5442 5444
5586 5589 5590 5571 5598 5595 5594 5593 5589 5587 5580 5579 5573 5572 5570 5562 5558 5553 5548 5548 5542 5535 5527 5522 5517 5512 5504 5497 5492 5487 5475 5470 5466 5462 5461 5452 5449 5449 5450 5448 5444 5439 5432 5432 5434 5434 5432 5432 5431 5429 5430 5424 5421 5428
5573 5598 5586 5600 5599 5595 5595 5589 5589 5587 5584 5577 5577 5576 5568 5562 5555 5552 5552 5546 5539 5528 5523 5516 5508 5504 5499 5492 5483 5475 5465 5458 5451 5449 5443 5436 5432 5429 5428 5427 5426 5419 5411 5412 5414 5415 5415 5415 5415 5414 5418 5413 5403 5415
5585 5603 5607 5608 5603 5601 5600 5604 5599 5590 5583 5578 5582 5574 5569 5554 5556 5555 5553 5542 5532 5522 5511 5500 5496 5491 5489 5484 5475 5465 5456 5448 5439 5431 5425 5419 5416 5410 5407 5405 5403 5396 5392 5396 5398 5398 5397 5397 5397 5398 5399 5400 5399 5398
5611 5610 5602 5609 5604 5608 5599 5597 5593 5589 5588 5591 5583 5565 5560 5557 5551 5558 5551 5540 5529 5514 5502 5497 5484 5485 5477 5470 5465 5457 5450 5444 5439 5429 5425 5418 5411 5404 5396 5395 5392 5379 5383 5382 5380 5381 5381 5381 5380 5379 5379 5379 5380 5378
5613 5617 5614 5605 5607 5607 5604 5599 5600 5596 5602 5596 5584 5578 5574 5573 5564 5556 5544 5535 5523 5509 5502 5491 5488 5482 5469 5466 5458 5452 5443 5437 5430 5423 5416 5413 5404 5397 5389 5387 5385 5384 5383 5377 5365 5366 5364 5364 5363 5364 5366 5368 5365 5367
5616 5623 5613 5609 5605 5606 5606 5614 5609 5610 5605 5596 5589 5583 5579 5570 5557 5547 5536 5524 5514 5509 5501 5487 5489 5476 5471 5467 5459 5451 5444 5431 5421 5413 5407 5400 5393 5386 5379 5375 5373 5370 5369 5369 5366 5361 5353 5356 5356 5357 5357 5359 5357 5360
5625 5621 5614 5614 5612 5618 5620 5617 5613 5606 5596 5590 5588 5576 5572 5563 5545 5535 5527 5519 5512 5506 5498 5491 5482 5477 5468 5459 5448 5440 5436 5427 5410 5398 5388 5388 5381 5373 5367 5363 5361 5359 5356 5355 5354 5352 5351 5350 5349 5348 5346 5345 5345 5347
5621 5616 5616 5612 5616 5622 5617 5610 5607 5602 5600 5588 5583 5576 5568 5557 5538 5529 5518 5515 5510 5504 5485 5483 5481 5470 5458 5450 5441 5431 5410 5414 5407 5396 5383 5377 5369 5362 5358 5356 5352 5349 5346 5345 5345 5343 5342 5342 5342 5340 5339 5340 5340 5339
5622 5623 5619 5616 5616 5616 5618 5609 5601 5596 5594 5587 5577 5569 5567 5556 5537 5524 5514 5507 5502 5498 5491 5480 5469 5458 5446 5440 5429 5423 5409 5404 5388 5377 5368 5358 5349 5344 5343 5345 5342 5339 5336 5335 5334 5332 5332 5332 5333 5332 5333 5335 5336 5336